Index of /20260426/WXO-DD/model_rdps/10km/06/020
Name Last modified Size Description
Parent Directory -
20260426T06Z_MSC_RDPS_AbsoluteVorticity_IsbL-0250_RLatLon0.09_PT020H.grib2 2026-04-26 08:45 615K
20260426T06Z_MSC_RDPS_AbsoluteVorticity_IsbL-0500_RLatLon0.09_PT020H.grib2 2026-04-26 08:45 567K
20260426T06Z_MSC_RDPS_AbsoluteVorticity_IsbL-0700_RLatLon0.09_PT020H.grib2 2026-04-26 08:45 624K
20260426T06Z_MSC_RDPS_AbsoluteVorticity_IsbL-0850_RLatLon0.09_PT020H.grib2 2026-04-26 08:45 783K
20260426T06Z_MSC_RDPS_AirTemp_AGL-120m_RLatLon0.09_PT020H.grib2 2026-04-26 08:45 389K
20260426T06Z_MSC_RDPS_AirTemp_AGL-2m_RLatLon0.09_PT020H.grib2 2026-04-26 08:45 627K
20260426T06Z_MSC_RDPS_AirTemp_AGL-40m_RLatLon0.09_PT020H.grib2 2026-04-26 08:45 401K
20260426T06Z_MSC_RDPS_AirTemp_AGL-80m_RLatLon0.09_PT020H.grib2 2026-04-26 08:45 394K
20260426T06Z_MSC_RDPS_AirTemp_IsbL-0001_RLatLon0.09_PT020H.grib2 2026-04-26 08:45 254K
20260426T06Z_MSC_RDPS_AirTemp_IsbL-0005_RLatLon0.09_PT020H.grib2 2026-04-26 08:45 292K
20260426T06Z_MSC_RDPS_AirTemp_IsbL-0010_RLatLon0.09_PT020H.grib2 2026-04-26 08:45 305K
20260426T06Z_MSC_RDPS_AirTemp_IsbL-0020_RLatLon0.09_PT020H.grib2 2026-04-26 08:45 321K
20260426T06Z_MSC_RDPS_AirTemp_IsbL-0030_RLatLon0.09_PT020H.grib2 2026-04-26 08:45 344K
20260426T06Z_MSC_RDPS_AirTemp_IsbL-0050_RLatLon0.09_PT020H.grib2 2026-04-26 08:45 320K
20260426T06Z_MSC_RDPS_AirTemp_IsbL-0100_RLatLon0.09_PT020H.grib2 2026-04-26 08:45 422K
20260426T06Z_MSC_RDPS_AirTemp_IsbL-0150_RLatLon0.09_PT020H.grib2 2026-04-26 08:45 418K
20260426T06Z_MSC_RDPS_AirTemp_IsbL-0175_RLatLon0.09_PT020H.grib2 2026-04-26 08:45 412K
20260426T06Z_MSC_RDPS_AirTemp_IsbL-0200_RLatLon0.09_PT020H.grib2 2026-04-26 08:45 421K
20260426T06Z_MSC_RDPS_AirTemp_IsbL-0225_RLatLon0.09_PT020H.grib2 2026-04-26 08:45 424K
20260426T06Z_MSC_RDPS_AirTemp_IsbL-0250_RLatLon0.09_PT020H.grib2 2026-04-26 08:45 430K
20260426T06Z_MSC_RDPS_AirTemp_IsbL-0275_RLatLon0.09_PT020H.grib2 2026-04-26 08:45 407K
20260426T06Z_MSC_RDPS_AirTemp_IsbL-0300_RLatLon0.09_PT020H.grib2 2026-04-26 08:45 413K
20260426T06Z_MSC_RDPS_AirTemp_IsbL-0350_RLatLon0.09_PT020H.grib2 2026-04-26 08:45 424K
20260426T06Z_MSC_RDPS_AirTemp_IsbL-0400_RLatLon0.09_PT020H.grib2 2026-04-26 08:45 425K
20260426T06Z_MSC_RDPS_AirTemp_IsbL-0450_RLatLon0.09_PT020H.grib2 2026-04-26 08:45 434K
20260426T06Z_MSC_RDPS_AirTemp_IsbL-0500_RLatLon0.09_PT020H.grib2 2026-04-26 08:45 412K
20260426T06Z_MSC_RDPS_AirTemp_IsbL-0550_RLatLon0.09_PT020H.grib2 2026-04-26 08:45 430K
20260426T06Z_MSC_RDPS_AirTemp_IsbL-0600_RLatLon0.09_PT020H.grib2 2026-04-26 08:45 448K
20260426T06Z_MSC_RDPS_AirTemp_IsbL-0650_RLatLon0.09_PT020H.grib2 2026-04-26 08:45 460K
20260426T06Z_MSC_RDPS_AirTemp_IsbL-0700_RLatLon0.09_PT020H.grib2 2026-04-26 08:45 484K
20260426T06Z_MSC_RDPS_AirTemp_IsbL-0750_RLatLon0.09_PT020H.grib2 2026-04-26 08:45 409K
20260426T06Z_MSC_RDPS_AirTemp_IsbL-0800_RLatLon0.09_PT020H.grib2 2026-04-26 08:45 466K
20260426T06Z_MSC_RDPS_AirTemp_IsbL-0850_RLatLon0.09_PT020H.grib2 2026-04-26 08:45 507K
20260426T06Z_MSC_RDPS_AirTemp_IsbL-0875_RLatLon0.09_PT020H.grib2 2026-04-26 08:45 517K
20260426T06Z_MSC_RDPS_AirTemp_IsbL-0900_RLatLon0.09_PT020H.grib2 2026-04-26 08:45 524K
20260426T06Z_MSC_RDPS_AirTemp_IsbL-0925_RLatLon0.09_PT020H.grib2 2026-04-26 08:45 523K
20260426T06Z_MSC_RDPS_AirTemp_IsbL-0950_RLatLon0.09_PT020H.grib2 2026-04-26 08:45 522K
20260426T06Z_MSC_RDPS_AirTemp_IsbL-0970_RLatLon0.09_PT020H.grib2 2026-04-26 08:45 523K
20260426T06Z_MSC_RDPS_AirTemp_IsbL-0985_RLatLon0.09_PT020H.grib2 2026-04-26 08:45 519K
20260426T06Z_MSC_RDPS_AirTemp_IsbL-1000_RLatLon0.09_PT020H.grib2 2026-04-26 08:45 503K
20260426T06Z_MSC_RDPS_AirTemp_IsbL-1015_RLatLon0.09_PT020H.grib2 2026-04-26 08:45 498K
20260426T06Z_MSC_RDPS_Albedo_Sfc_RLatLon0.09_PT020H.grib2 2026-04-26 08:45 166K
20260426T06Z_MSC_RDPS_CAPE_Sfc_RLatLon0.09_PT020H.grib2 2026-04-26 08:45 1.7M
20260426T06Z_MSC_RDPS_CIN_Sfc_RLatLon0.09_PT020H.grib2 2026-04-26 08:45 1.2M
20260426T06Z_MSC_RDPS_CloudWater_EAtm_RLatLon0.09_PT020H.grib2 2026-04-26 08:45 219K
20260426T06Z_MSC_RDPS_ConvectivePrecip-Accum_Sfc_RLatLon0.09_PT020H.grib2 2026-04-26 08:45 855K
20260426T06Z_MSC_RDPS_DewPointDepression_AGL-2m_RLatLon0.09_PT020H.grib2 2026-04-26 08:45 398K
20260426T06Z_MSC_RDPS_DewPointDepression_IsbL-0001_RLatLon0.09_PT020H.grib2 2026-04-26 08:45 193
20260426T06Z_MSC_RDPS_DewPointDepression_IsbL-0005_RLatLon0.09_PT020H.grib2 2026-04-26 08:45 193
20260426T06Z_MSC_RDPS_DewPointDepression_IsbL-0010_RLatLon0.09_PT020H.grib2 2026-04-26 08:45 193
20260426T06Z_MSC_RDPS_DewPointDepression_IsbL-0020_RLatLon0.09_PT020H.grib2 2026-04-26 08:45 193
20260426T06Z_MSC_RDPS_DewPointDepression_IsbL-0030_RLatLon0.09_PT020H.grib2 2026-04-26 08:45 193
20260426T06Z_MSC_RDPS_DewPointDepression_IsbL-0050_RLatLon0.09_PT020H.grib2 2026-04-26 08:45 90K
20260426T06Z_MSC_RDPS_DewPointDepression_IsbL-0100_RLatLon0.09_PT020H.grib2 2026-04-26 08:45 127K
20260426T06Z_MSC_RDPS_DewPointDepression_IsbL-0150_RLatLon0.09_PT020H.grib2 2026-04-26 08:45 154K
20260426T06Z_MSC_RDPS_DewPointDepression_IsbL-0175_RLatLon0.09_PT020H.grib2 2026-04-26 08:45 189K
20260426T06Z_MSC_RDPS_DewPointDepression_IsbL-0200_RLatLon0.09_PT020H.grib2 2026-04-26 08:45 230K
20260426T06Z_MSC_RDPS_DewPointDepression_IsbL-0225_RLatLon0.09_PT020H.grib2 2026-04-26 08:45 270K
20260426T06Z_MSC_RDPS_DewPointDepression_IsbL-0250_RLatLon0.09_PT020H.grib2 2026-04-26 08:45 308K
20260426T06Z_MSC_RDPS_DewPointDepression_IsbL-0275_RLatLon0.09_PT020H.grib2 2026-04-26 08:45 317K
20260426T06Z_MSC_RDPS_DewPointDepression_IsbL-0300_RLatLon0.09_PT020H.grib2 2026-04-26 08:45 336K
20260426T06Z_MSC_RDPS_DewPointDepression_IsbL-0350_RLatLon0.09_PT020H.grib2 2026-04-26 08:45 339K
20260426T06Z_MSC_RDPS_DewPointDepression_IsbL-0400_RLatLon0.09_PT020H.grib2 2026-04-26 08:45 351K
20260426T06Z_MSC_RDPS_DewPointDepression_IsbL-0450_RLatLon0.09_PT020H.grib2 2026-04-26 08:45 364K
20260426T06Z_MSC_RDPS_DewPointDepression_IsbL-0500_RLatLon0.09_PT020H.grib2 2026-04-26 08:45 368K
20260426T06Z_MSC_RDPS_DewPointDepression_IsbL-0550_RLatLon0.09_PT020H.grib2 2026-04-26 08:45 379K
20260426T06Z_MSC_RDPS_DewPointDepression_IsbL-0600_RLatLon0.09_PT020H.grib2 2026-04-26 08:45 388K
20260426T06Z_MSC_RDPS_DewPointDepression_IsbL-0650_RLatLon0.09_PT020H.grib2 2026-04-26 08:45 389K
20260426T06Z_MSC_RDPS_DewPointDepression_IsbL-0700_RLatLon0.09_PT020H.grib2 2026-04-26 08:45 400K
20260426T06Z_MSC_RDPS_DewPointDepression_IsbL-0750_RLatLon0.09_PT020H.grib2 2026-04-26 08:45 425K
20260426T06Z_MSC_RDPS_DewPointDepression_IsbL-0800_RLatLon0.09_PT020H.grib2 2026-04-26 08:45 456K
20260426T06Z_MSC_RDPS_DewPointDepression_IsbL-0850_RLatLon0.09_PT020H.grib2 2026-04-26 08:45 475K
20260426T06Z_MSC_RDPS_DewPointDepression_IsbL-0875_RLatLon0.09_PT020H.grib2 2026-04-26 08:45 474K
20260426T06Z_MSC_RDPS_DewPointDepression_IsbL-0900_RLatLon0.09_PT020H.grib2 2026-04-26 08:45 465K
20260426T06Z_MSC_RDPS_DewPointDepression_IsbL-0925_RLatLon0.09_PT020H.grib2 2026-04-26 08:45 455K
20260426T06Z_MSC_RDPS_DewPointDepression_IsbL-0950_RLatLon0.09_PT020H.grib2 2026-04-26 08:45 439K
20260426T06Z_MSC_RDPS_DewPointDepression_IsbL-0970_RLatLon0.09_PT020H.grib2 2026-04-26 08:45 429K
20260426T06Z_MSC_RDPS_DewPointDepression_IsbL-0985_RLatLon0.09_PT020H.grib2 2026-04-26 08:45 425K
20260426T06Z_MSC_RDPS_DewPointDepression_IsbL-1000_RLatLon0.09_PT020H.grib2 2026-04-26 08:45 419K
20260426T06Z_MSC_RDPS_DewPointDepression_IsbL-1015_RLatLon0.09_PT020H.grib2 2026-04-26 08:45 411K
20260426T06Z_MSC_RDPS_DewPoint_AGL-2m_RLatLon0.09_PT020H.grib2 2026-04-26 08:45 305K
20260426T06Z_MSC_RDPS_DownwardLongwaveRadiationFlux-Accum_Sfc_RLatLon0.09_PT020H.grib2 2026-04-26 08:45 424K
20260426T06Z_MSC_RDPS_DownwardShortwaveRadiationFlux-Accum_NTAtm_RLatLon0.09_PT020H.grib2 2026-04-26 08:45 96K
20260426T06Z_MSC_RDPS_DownwardShortwaveRadiationFlux-Accum_Sfc_RLatLon0.09_PT020H.grib2 2026-04-26 08:45 634K
20260426T06Z_MSC_RDPS_FreezingRain-Accum1h_Sfc_RLatLon0.09_PT020H.grib2 2026-04-26 08:45 13K
20260426T06Z_MSC_RDPS_FreezingRain-Accum_Sfc_RLatLon0.09_PT020H.grib2 2026-04-26 08:45 104K
20260426T06Z_MSC_RDPS_GeopotentialHeight_IsbL-0001_RLatLon0.09_PT020H.grib2 2026-04-26 08:45 237K
20260426T06Z_MSC_RDPS_GeopotentialHeight_IsbL-0005_RLatLon0.09_PT020H.grib2 2026-04-26 08:45 336K
20260426T06Z_MSC_RDPS_GeopotentialHeight_IsbL-0010_RLatLon0.09_PT020H.grib2 2026-04-26 08:45 305K
20260426T06Z_MSC_RDPS_GeopotentialHeight_IsbL-0020_RLatLon0.09_PT020H.grib2 2026-04-26 08:45 304K
20260426T06Z_MSC_RDPS_GeopotentialHeight_IsbL-0030_RLatLon0.09_PT020H.grib2 2026-04-26 08:45 402K
20260426T06Z_MSC_RDPS_GeopotentialHeight_IsbL-0050_RLatLon0.09_PT020H.grib2 2026-04-26 08:45 307K
20260426T06Z_MSC_RDPS_GeopotentialHeight_IsbL-0100_RLatLon0.09_PT020H.grib2 2026-04-26 08:45 288K
20260426T06Z_MSC_RDPS_GeopotentialHeight_IsbL-0150_RLatLon0.09_PT020H.grib2 2026-04-26 08:45 228K
20260426T06Z_MSC_RDPS_GeopotentialHeight_IsbL-0175_RLatLon0.09_PT020H.grib2 2026-04-26 08:45 230K
20260426T06Z_MSC_RDPS_GeopotentialHeight_IsbL-0200_RLatLon0.09_PT020H.grib2 2026-04-26 08:45 233K
20260426T06Z_MSC_RDPS_GeopotentialHeight_IsbL-0225_RLatLon0.09_PT020H.grib2 2026-04-26 08:45 265K
20260426T06Z_MSC_RDPS_GeopotentialHeight_IsbL-0250_RLatLon0.09_PT020H.grib2 2026-04-26 08:45 267K
20260426T06Z_MSC_RDPS_GeopotentialHeight_IsbL-0275_RLatLon0.09_PT020H.grib2 2026-04-26 08:45 235K
20260426T06Z_MSC_RDPS_GeopotentialHeight_IsbL-0300_RLatLon0.09_PT020H.grib2 2026-04-26 08:45 235K
20260426T06Z_MSC_RDPS_GeopotentialHeight_IsbL-0350_RLatLon0.09_PT020H.grib2 2026-04-26 08:45 231K
20260426T06Z_MSC_RDPS_GeopotentialHeight_IsbL-0400_RLatLon0.09_PT020H.grib2 2026-04-26 08:45 228K
20260426T06Z_MSC_RDPS_GeopotentialHeight_IsbL-0450_RLatLon0.09_PT020H.grib2 2026-04-26 08:45 297K
20260426T06Z_MSC_RDPS_GeopotentialHeight_IsbL-0500_RLatLon0.09_PT020H.grib2 2026-04-26 08:45 292K
20260426T06Z_MSC_RDPS_GeopotentialHeight_IsbL-0550_RLatLon0.09_PT020H.grib2 2026-04-26 08:45 289K
20260426T06Z_MSC_RDPS_GeopotentialHeight_IsbL-0600_RLatLon0.09_PT020H.grib2 2026-04-26 08:45 286K
20260426T06Z_MSC_RDPS_GeopotentialHeight_IsbL-0650_RLatLon0.09_PT020H.grib2 2026-04-26 08:45 283K
20260426T06Z_MSC_RDPS_GeopotentialHeight_IsbL-0700_RLatLon0.09_PT020H.grib2 2026-04-26 08:45 281K
20260426T06Z_MSC_RDPS_GeopotentialHeight_IsbL-0750_RLatLon0.09_PT020H.grib2 2026-04-26 08:45 282K
20260426T06Z_MSC_RDPS_GeopotentialHeight_IsbL-0800_RLatLon0.09_PT020H.grib2 2026-04-26 08:45 259K
20260426T06Z_MSC_RDPS_GeopotentialHeight_IsbL-0850_RLatLon0.09_PT020H.grib2 2026-04-26 08:45 264K
20260426T06Z_MSC_RDPS_GeopotentialHeight_IsbL-0875_RLatLon0.09_PT020H.grib2 2026-04-26 08:45 267K
20260426T06Z_MSC_RDPS_GeopotentialHeight_IsbL-0900_RLatLon0.09_PT020H.grib2 2026-04-26 08:45 270K
20260426T06Z_MSC_RDPS_GeopotentialHeight_IsbL-0925_RLatLon0.09_PT020H.grib2 2026-04-26 08:45 273K
20260426T06Z_MSC_RDPS_GeopotentialHeight_IsbL-0950_RLatLon0.09_PT020H.grib2 2026-04-26 08:45 276K
20260426T06Z_MSC_RDPS_GeopotentialHeight_IsbL-0970_RLatLon0.09_PT020H.grib2 2026-04-26 08:45 280K
20260426T06Z_MSC_RDPS_GeopotentialHeight_IsbL-0985_RLatLon0.09_PT020H.grib2 2026-04-26 08:45 288K
20260426T06Z_MSC_RDPS_GeopotentialHeight_IsbL-1000_RLatLon0.09_PT020H.grib2 2026-04-26 08:45 296K
20260426T06Z_MSC_RDPS_GeopotentialHeight_IsbL-1015_RLatLon0.09_PT020H.grib2 2026-04-26 08:45 307K
20260426T06Z_MSC_RDPS_Humidex_Sfc_RLatLon0.09_PT020H.grib2 2026-04-26 08:45 2.4M
20260426T06Z_MSC_RDPS_IcePellets-Accum1h_Sfc_RLatLon0.09_PT020H.grib2 2026-04-26 08:45 5.6K
20260426T06Z_MSC_RDPS_IcePellets-Accum_Sfc_RLatLon0.09_PT020H.grib2 2026-04-26 08:45 23K
20260426T06Z_MSC_RDPS_KIndex_Sfc_RLatLon0.09_PT020H.grib2 2026-04-26 08:45 2.4M
20260426T06Z_MSC_RDPS_LatentHeatNetFlux_Sfc_RLatLon0.09_PT020H.grib2 2026-04-26 08:45 323K
20260426T06Z_MSC_RDPS_LiftedIndex-MU-VT_IsbL-0500_RLatLon0.09_PT020H.grib2 2026-04-26 08:45 2.4M
20260426T06Z_MSC_RDPS_NetLongwaveRadiationFlux-Accum_Sfc_RLatLon0.09_PT020H.grib2 2026-04-26 08:45 564K
20260426T06Z_MSC_RDPS_NetShortwaveRadiationFlux-Accum_Sfc_RLatLon0.09_PT020H.grib2 2026-04-26 08:45 633K
20260426T06Z_MSC_RDPS_PlanetaryBoundaryLayerHeight_Sfc_RLatLon0.09_PT020H.grib2 2026-04-26 08:45 1.1M
20260426T06Z_MSC_RDPS_Precip-Accum1h_Sfc_RLatLon0.09_PT020H.grib2 2026-04-26 08:45 1.2M
20260426T06Z_MSC_RDPS_Precip-Accum_Sfc_RLatLon0.09_PT020H.grib2 2026-04-26 08:45 1.9M
20260426T06Z_MSC_RDPS_PrecipRate_Sfc_RLatLon0.09_PT020H.grib2 2026-04-26 08:45 179K
20260426T06Z_MSC_RDPS_PrecipType-Instant_Sfc_RLatLon0.09_PT020H.grib2 2026-04-26 08:45 586K
20260426T06Z_MSC_RDPS_Pressure-Trend3h_Sfc_RLatLon0.09_PT020H.grib2 2026-04-26 08:45 1.2M
20260426T06Z_MSC_RDPS_Pressure_MSL_RLatLon0.09_PT020H.grib2 2026-04-26 08:45 324K
20260426T06Z_MSC_RDPS_Pressure_PVU-1.5_RLatLon0.09_PT020H.grib2 2026-04-26 08:45 2.3M
20260426T06Z_MSC_RDPS_Pressure_PVU-1_RLatLon0.09_PT020H.grib2 2026-04-26 08:45 2.4M
20260426T06Z_MSC_RDPS_Pressure_PVU-2_RLatLon0.09_PT020H.grib2 2026-04-26 08:45 2.4M
20260426T06Z_MSC_RDPS_Pressure_Sfc_RLatLon0.09_PT020H.grib2 2026-04-26 08:45 498K
20260426T06Z_MSC_RDPS_RadiativeTemp_Sfc_RLatLon0.09_PT020H.grib2 2026-04-26 08:45 308K
20260426T06Z_MSC_RDPS_Rain-Accum1h_Sfc_RLatLon0.09_PT020H.grib2 2026-04-26 08:45 594K
20260426T06Z_MSC_RDPS_Rain-Accum_Sfc_RLatLon0.09_PT020H.grib2 2026-04-26 08:45 1.4M
20260426T06Z_MSC_RDPS_RelativeHumidity_AGL-2m_RLatLon0.09_PT020H.grib2 2026-04-26 08:45 1.0M
20260426T06Z_MSC_RDPS_RelativeHumidity_IsbL-0010_RLatLon0.09_PT020H.grib2 2026-04-26 08:45 631K
20260426T06Z_MSC_RDPS_RelativeHumidity_IsbL-0020_RLatLon0.09_PT020H.grib2 2026-04-26 08:45 657K
20260426T06Z_MSC_RDPS_RelativeHumidity_IsbL-0030_RLatLon0.09_PT020H.grib2 2026-04-26 08:45 545K
20260426T06Z_MSC_RDPS_RelativeHumidity_IsbL-0050_RLatLon0.09_PT020H.grib2 2026-04-26 08:45 327K
20260426T06Z_MSC_RDPS_RelativeHumidity_IsbL-0100_RLatLon0.09_PT020H.grib2 2026-04-26 08:45 272K
20260426T06Z_MSC_RDPS_RelativeHumidity_IsbL-0150_RLatLon0.09_PT020H.grib2 2026-04-26 08:45 412K
20260426T06Z_MSC_RDPS_RelativeHumidity_IsbL-0175_RLatLon0.09_PT020H.grib2 2026-04-26 08:45 488K
20260426T06Z_MSC_RDPS_RelativeHumidity_IsbL-0200_RLatLon0.09_PT020H.grib2 2026-04-26 08:45 567K
20260426T06Z_MSC_RDPS_RelativeHumidity_IsbL-0225_RLatLon0.09_PT020H.grib2 2026-04-26 08:45 635K
20260426T06Z_MSC_RDPS_RelativeHumidity_IsbL-0250_RLatLon0.09_PT020H.grib2 2026-04-26 08:45 707K
20260426T06Z_MSC_RDPS_RelativeHumidity_IsbL-0275_RLatLon0.09_PT020H.grib2 2026-04-26 08:45 736K
20260426T06Z_MSC_RDPS_RelativeHumidity_IsbL-0300_RLatLon0.09_PT020H.grib2 2026-04-26 08:45 780K
20260426T06Z_MSC_RDPS_RelativeHumidity_IsbL-0350_RLatLon0.09_PT020H.grib2 2026-04-26 08:45 795K
20260426T06Z_MSC_RDPS_RelativeHumidity_IsbL-0400_RLatLon0.09_PT020H.grib2 2026-04-26 08:45 807K
20260426T06Z_MSC_RDPS_RelativeHumidity_IsbL-0450_RLatLon0.09_PT020H.grib2 2026-04-26 08:45 821K
20260426T06Z_MSC_RDPS_RelativeHumidity_IsbL-0500_RLatLon0.09_PT020H.grib2 2026-04-26 08:45 827K
20260426T06Z_MSC_RDPS_RelativeHumidity_IsbL-0550_RLatLon0.09_PT020H.grib2 2026-04-26 08:45 856K
20260426T06Z_MSC_RDPS_RelativeHumidity_IsbL-0600_RLatLon0.09_PT020H.grib2 2026-04-26 08:45 872K
20260426T06Z_MSC_RDPS_RelativeHumidity_IsbL-0650_RLatLon0.09_PT020H.grib2 2026-04-26 08:45 875K
20260426T06Z_MSC_RDPS_RelativeHumidity_IsbL-0700_RLatLon0.09_PT020H.grib2 2026-04-26 08:45 907K
20260426T06Z_MSC_RDPS_RelativeHumidity_IsbL-0750_RLatLon0.09_PT020H.grib2 2026-04-26 08:45 952K
20260426T06Z_MSC_RDPS_RelativeHumidity_IsbL-0800_RLatLon0.09_PT020H.grib2 2026-04-26 08:45 1.0M
20260426T06Z_MSC_RDPS_RelativeHumidity_IsbL-0850_RLatLon0.09_PT020H.grib2 2026-04-26 08:45 1.0M
20260426T06Z_MSC_RDPS_RelativeHumidity_IsbL-0875_RLatLon0.09_PT020H.grib2 2026-04-26 08:45 1.1M
20260426T06Z_MSC_RDPS_RelativeHumidity_IsbL-0900_RLatLon0.09_PT020H.grib2 2026-04-26 08:45 1.1M
20260426T06Z_MSC_RDPS_RelativeHumidity_IsbL-0925_RLatLon0.09_PT020H.grib2 2026-04-26 08:45 1.1M
20260426T06Z_MSC_RDPS_RelativeHumidity_IsbL-0950_RLatLon0.09_PT020H.grib2 2026-04-26 08:45 1.1M
20260426T06Z_MSC_RDPS_RelativeHumidity_IsbL-0970_RLatLon0.09_PT020H.grib2 2026-04-26 08:45 1.0M
20260426T06Z_MSC_RDPS_RelativeHumidity_IsbL-0985_RLatLon0.09_PT020H.grib2 2026-04-26 08:45 1.0M
20260426T06Z_MSC_RDPS_RelativeHumidity_IsbL-1000_RLatLon0.09_PT020H.grib2 2026-04-26 08:45 1.0M
20260426T06Z_MSC_RDPS_RelativeHumidity_IsbL-1015_RLatLon0.09_PT020H.grib2 2026-04-26 08:45 1.0M
20260426T06Z_MSC_RDPS_Runoff-Accum_Sfc_RLatLon0.09_PT020H.grib2 2026-04-26 08:45 60K
20260426T06Z_MSC_RDPS_SWEATIndex_Sfc_RLatLon0.09_PT020H.grib2 2026-04-26 08:45 2.4M
20260426T06Z_MSC_RDPS_SeeingIndex_EAtm_RLatLon0.09_PT020H.grib2 2026-04-26 08:45 1.0M
20260426T06Z_MSC_RDPS_SensibleHeatNetFlux_Sfc_RLatLon0.09_PT020H.grib2 2026-04-26 08:45 294K
20260426T06Z_MSC_RDPS_ShowalterIndex_IsbL-0500_RLatLon0.09_PT020H.grib2 2026-04-26 08:45 2.5M
20260426T06Z_MSC_RDPS_SkyTransparencyIndex_EAtm_RLatLon0.09_PT020H.grib2 2026-04-26 08:45 718K
20260426T06Z_MSC_RDPS_Snow-Accum1h_Sfc_RLatLon0.09_PT020H.grib2 2026-04-26 08:45 495K
20260426T06Z_MSC_RDPS_Snow-Accum_Sfc_RLatLon0.09_PT020H.grib2 2026-04-26 08:45 769K
20260426T06Z_MSC_RDPS_SnowDensity_Sfc_RLatLon0.09_PT020H.grib2 2026-04-26 08:45 183K
20260426T06Z_MSC_RDPS_SnowDepth_Sfc_RLatLon0.09_PT020H.grib2 2026-04-26 08:45 728K
20260426T06Z_MSC_RDPS_SoilTemp_DBS-0to10cm_RLatLon0.09_PT020H.grib2 2026-04-26 08:45 221K
20260426T06Z_MSC_RDPS_SoilTemp_Sfc_RLatLon0.09_PT020H.grib2 2026-04-26 08:45 259K
20260426T06Z_MSC_RDPS_SoilVolumetricIceContent_Sfc_RLatLon0.09_PT020H.grib2 2026-04-26 08:45 168K
20260426T06Z_MSC_RDPS_SoilVolumetricWaterContent_DBS-0to10cm_RLatLon0.09_PT020H.grib2 2026-04-26 08:45 258K
20260426T06Z_MSC_RDPS_SoilVolumetricWaterContent_DBS-0to1cm_RLatLon0.09_PT020H.grib2 2026-04-26 08:45 338K
20260426T06Z_MSC_RDPS_SpecificHumidity_AGL-120m_RLatLon0.09_PT020H.grib2 2026-04-26 08:45 478K
20260426T06Z_MSC_RDPS_SpecificHumidity_AGL-2m_RLatLon0.09_PT020H.grib2 2026-04-26 08:45 644K
20260426T06Z_MSC_RDPS_SpecificHumidity_AGL-40m_RLatLon0.09_PT020H.grib2 2026-04-26 08:45 484K
20260426T06Z_MSC_RDPS_SpecificHumidity_AGL-80m_RLatLon0.09_PT020H.grib2 2026-04-26 08:45 479K
20260426T06Z_MSC_RDPS_SpecificHumidity_IsbL-0001_RLatLon0.09_PT020H.grib2 2026-04-26 08:45 339K
20260426T06Z_MSC_RDPS_SpecificHumidity_IsbL-0005_RLatLon0.09_PT020H.grib2 2026-04-26 08:45 358K
20260426T06Z_MSC_RDPS_SpecificHumidity_IsbL-0010_RLatLon0.09_PT020H.grib2 2026-04-26 08:45 400K
20260426T06Z_MSC_RDPS_SpecificHumidity_IsbL-0020_RLatLon0.09_PT020H.grib2 2026-04-26 08:45 390K
20260426T06Z_MSC_RDPS_SpecificHumidity_IsbL-0030_RLatLon0.09_PT020H.grib2 2026-04-26 08:45 482K
20260426T06Z_MSC_RDPS_SpecificHumidity_IsbL-0050_RLatLon0.09_PT020H.grib2 2026-04-26 08:45 477K
20260426T06Z_MSC_RDPS_SpecificHumidity_IsbL-0100_RLatLon0.09_PT020H.grib2 2026-04-26 08:45 449K
20260426T06Z_MSC_RDPS_SpecificHumidity_IsbL-0150_RLatLon0.09_PT020H.grib2 2026-04-26 08:45 456K
20260426T06Z_MSC_RDPS_SpecificHumidity_IsbL-0175_RLatLon0.09_PT020H.grib2 2026-04-26 08:45 474K
20260426T06Z_MSC_RDPS_SpecificHumidity_IsbL-0200_RLatLon0.09_PT020H.grib2 2026-04-26 08:45 470K
20260426T06Z_MSC_RDPS_SpecificHumidity_IsbL-0225_RLatLon0.09_PT020H.grib2 2026-04-26 08:45 574K
20260426T06Z_MSC_RDPS_SpecificHumidity_IsbL-0250_RLatLon0.09_PT020H.grib2 2026-04-26 08:45 573K
20260426T06Z_MSC_RDPS_SpecificHumidity_IsbL-0275_RLatLon0.09_PT020H.grib2 2026-04-26 08:45 488K
20260426T06Z_MSC_RDPS_SpecificHumidity_IsbL-0300_RLatLon0.09_PT020H.grib2 2026-04-26 08:45 560K
20260426T06Z_MSC_RDPS_SpecificHumidity_IsbL-0350_RLatLon0.09_PT020H.grib2 2026-04-26 08:45 545K
20260426T06Z_MSC_RDPS_SpecificHumidity_IsbL-0400_RLatLon0.09_PT020H.grib2 2026-04-26 08:45 525K
20260426T06Z_MSC_RDPS_SpecificHumidity_IsbL-0450_RLatLon0.09_PT020H.grib2 2026-04-26 08:45 584K
20260426T06Z_MSC_RDPS_SpecificHumidity_IsbL-0500_RLatLon0.09_PT020H.grib2 2026-04-26 08:45 520K
20260426T06Z_MSC_RDPS_SpecificHumidity_IsbL-0550_RLatLon0.09_PT020H.grib2 2026-04-26 08:45 574K
20260426T06Z_MSC_RDPS_SpecificHumidity_IsbL-0600_RLatLon0.09_PT020H.grib2 2026-04-26 08:45 640K
20260426T06Z_MSC_RDPS_SpecificHumidity_IsbL-0650_RLatLon0.09_PT020H.grib2 2026-04-26 08:45 554K
20260426T06Z_MSC_RDPS_SpecificHumidity_IsbL-0700_RLatLon0.09_PT020H.grib2 2026-04-26 08:45 599K
20260426T06Z_MSC_RDPS_SpecificHumidity_IsbL-0750_RLatLon0.09_PT020H.grib2 2026-04-26 08:45 658K
20260426T06Z_MSC_RDPS_SpecificHumidity_IsbL-0800_RLatLon0.09_PT020H.grib2 2026-04-26 08:45 739K
20260426T06Z_MSC_RDPS_SpecificHumidity_IsbL-0850_RLatLon0.09_PT020H.grib2 2026-04-26 08:45 805K
20260426T06Z_MSC_RDPS_SpecificHumidity_IsbL-0875_RLatLon0.09_PT020H.grib2 2026-04-26 08:45 826K
20260426T06Z_MSC_RDPS_SpecificHumidity_IsbL-0900_RLatLon0.09_PT020H.grib2 2026-04-26 08:45 836K
20260426T06Z_MSC_RDPS_SpecificHumidity_IsbL-0925_RLatLon0.09_PT020H.grib2 2026-04-26 08:45 697K
20260426T06Z_MSC_RDPS_SpecificHumidity_IsbL-0950_RLatLon0.09_PT020H.grib2 2026-04-26 08:45 689K
20260426T06Z_MSC_RDPS_SpecificHumidity_IsbL-0970_RLatLon0.09_PT020H.grib2 2026-04-26 08:45 676K
20260426T06Z_MSC_RDPS_SpecificHumidity_IsbL-0985_RLatLon0.09_PT020H.grib2 2026-04-26 08:45 668K
20260426T06Z_MSC_RDPS_SpecificHumidity_IsbL-1000_RLatLon0.09_PT020H.grib2 2026-04-26 08:45 662K
20260426T06Z_MSC_RDPS_SpecificHumidity_IsbL-1015_RLatLon0.09_PT020H.grib2 2026-04-26 08:45 656K
20260426T06Z_MSC_RDPS_SpecificHumidity_Sfc_RLatLon0.09_PT020H.grib2 2026-04-26 08:45 318K
20260426T06Z_MSC_RDPS_StormRelativeHelicity_EtaL-10000_RLatLon0.09_PT020H.grib2 2026-04-26 08:45 1.1M
20260426T06Z_MSC_RDPS_StormSeverityIndex_EtaL-10000_RLatLon0.09_PT020H.grib2 2026-04-26 08:45 1.2M
20260426T06Z_MSC_RDPS_Thickness_IsbL-0850to0700_RLatLon0.09_PT020H.grib2 2026-04-26 08:45 194K
20260426T06Z_MSC_RDPS_Thickness_IsbL-1000to0500_RLatLon0.09_PT020H.grib2 2026-04-26 08:45 200K
20260426T06Z_MSC_RDPS_Thickness_IsbL-1000to0850_RLatLon0.09_PT020H.grib2 2026-04-26 08:45 182K
20260426T06Z_MSC_RDPS_TotalCloudCover_Sfc_RLatLon0.09_PT020H.grib2 2026-04-26 08:45 660K
20260426T06Z_MSC_RDPS_TotalTotalsIndex_Sfc_RLatLon0.09_PT020H.grib2 2026-04-26 08:45 2.4M
20260426T06Z_MSC_RDPS_UVIndex-ClearSky_Sfc_RLatLon0.09_PT020H.grib2 2026-04-26 08:45 113K
20260426T06Z_MSC_RDPS_UVIndex_Sfc_RLatLon0.09_PT020H.grib2 2026-04-26 08:45 246K
20260426T06Z_MSC_RDPS_UpwardLongwaveRadiationFlux_NTAtm_RLatLon0.09_PT020H.grib2 2026-04-26 08:45 493K
20260426T06Z_MSC_RDPS_UpwardShortwaveRadiationFlux_NTAtm_RLatLon0.09_PT020H.grib2 2026-04-26 08:45 236K
20260426T06Z_MSC_RDPS_VerticalVelocity_IsbL-0250_RLatLon0.09_PT020H.grib2 2026-04-26 08:45 545K
20260426T06Z_MSC_RDPS_VerticalVelocity_IsbL-0500_RLatLon0.09_PT020H.grib2 2026-04-26 08:45 541K
20260426T06Z_MSC_RDPS_VerticalVelocity_IsbL-0700_RLatLon0.09_PT020H.grib2 2026-04-26 08:45 594K
20260426T06Z_MSC_RDPS_VerticalVelocity_IsbL-0850_RLatLon0.09_PT020H.grib2 2026-04-26 08:45 693K
20260426T06Z_MSC_RDPS_VerticalWindShear_EtaL-6500_RLatLon0.09_PT020H.grib2 2026-04-26 08:45 1.2M
20260426T06Z_MSC_RDPS_WindChill_Sfc_RLatLon0.09_PT020H.grib2 2026-04-26 08:45 1.1M
20260426T06Z_MSC_RDPS_WindDir_AGL-10m_RLatLon0.09_PT020H.grib2 2026-04-26 08:45 965K
20260426T06Z_MSC_RDPS_WindDir_AGL-120m_RLatLon0.09_PT020H.grib2 2026-04-26 08:45 602K
20260426T06Z_MSC_RDPS_WindDir_AGL-40m_RLatLon0.09_PT020H.grib2 2026-04-26 08:45 632K
20260426T06Z_MSC_RDPS_WindDir_AGL-80m_RLatLon0.09_PT020H.grib2 2026-04-26 08:45 614K
20260426T06Z_MSC_RDPS_WindDir_IsbL-0001_RLatLon0.09_PT020H.grib2 2026-04-26 08:45 290K
20260426T06Z_MSC_RDPS_WindDir_IsbL-0005_RLatLon0.09_PT020H.grib2 2026-04-26 08:45 371K
20260426T06Z_MSC_RDPS_WindDir_IsbL-0010_RLatLon0.09_PT020H.grib2 2026-04-26 08:45 391K
20260426T06Z_MSC_RDPS_WindDir_IsbL-0020_RLatLon0.09_PT020H.grib2 2026-04-26 08:45 421K
20260426T06Z_MSC_RDPS_WindDir_IsbL-0030_RLatLon0.09_PT020H.grib2 2026-04-26 08:45 409K
20260426T06Z_MSC_RDPS_WindDir_IsbL-0050_RLatLon0.09_PT020H.grib2 2026-04-26 08:45 436K
20260426T06Z_MSC_RDPS_WindDir_IsbL-0100_RLatLon0.09_PT020H.grib2 2026-04-26 08:45 416K
20260426T06Z_MSC_RDPS_WindDir_IsbL-0150_RLatLon0.09_PT020H.grib2 2026-04-26 08:45 414K
20260426T06Z_MSC_RDPS_WindDir_IsbL-0175_RLatLon0.09_PT020H.grib2 2026-04-26 08:45 443K
20260426T06Z_MSC_RDPS_WindDir_IsbL-0200_RLatLon0.09_PT020H.grib2 2026-04-26 08:45 457K
20260426T06Z_MSC_RDPS_WindDir_IsbL-0225_RLatLon0.09_PT020H.grib2 2026-04-26 08:45 458K
20260426T06Z_MSC_RDPS_WindDir_IsbL-0250_RLatLon0.09_PT020H.grib2 2026-04-26 08:45 459K
20260426T06Z_MSC_RDPS_WindDir_IsbL-0275_RLatLon0.09_PT020H.grib2 2026-04-26 08:45 482K
20260426T06Z_MSC_RDPS_WindDir_IsbL-0300_RLatLon0.09_PT020H.grib2 2026-04-26 08:45 481K
20260426T06Z_MSC_RDPS_WindDir_IsbL-0350_RLatLon0.09_PT020H.grib2 2026-04-26 08:45 498K
20260426T06Z_MSC_RDPS_WindDir_IsbL-0400_RLatLon0.09_PT020H.grib2 2026-04-26 08:45 516K
20260426T06Z_MSC_RDPS_WindDir_IsbL-0450_RLatLon0.09_PT020H.grib2 2026-04-26 08:45 531K
20260426T06Z_MSC_RDPS_WindDir_IsbL-0500_RLatLon0.09_PT020H.grib2 2026-04-26 08:45 546K
20260426T06Z_MSC_RDPS_WindDir_IsbL-0550_RLatLon0.09_PT020H.grib2 2026-04-26 08:45 562K
20260426T06Z_MSC_RDPS_WindDir_IsbL-0600_RLatLon0.09_PT020H.grib2 2026-04-26 08:45 594K
20260426T06Z_MSC_RDPS_WindDir_IsbL-0650_RLatLon0.09_PT020H.grib2 2026-04-26 08:45 637K
20260426T06Z_MSC_RDPS_WindDir_IsbL-0700_RLatLon0.09_PT020H.grib2 2026-04-26 08:45 682K
20260426T06Z_MSC_RDPS_WindDir_IsbL-0750_RLatLon0.09_PT020H.grib2 2026-04-26 08:45 736K
20260426T06Z_MSC_RDPS_WindDir_IsbL-0800_RLatLon0.09_PT020H.grib2 2026-04-26 08:45 806K
20260426T06Z_MSC_RDPS_WindDir_IsbL-0850_RLatLon0.09_PT020H.grib2 2026-04-26 08:45 880K
20260426T06Z_MSC_RDPS_WindDir_IsbL-0875_RLatLon0.09_PT020H.grib2 2026-04-26 08:45 901K
20260426T06Z_MSC_RDPS_WindDir_IsbL-0900_RLatLon0.09_PT020H.grib2 2026-04-26 08:45 910K
20260426T06Z_MSC_RDPS_WindDir_IsbL-0925_RLatLon0.09_PT020H.grib2 2026-04-26 08:45 910K
20260426T06Z_MSC_RDPS_WindDir_IsbL-0950_RLatLon0.09_PT020H.grib2 2026-04-26 08:45 902K
20260426T06Z_MSC_RDPS_WindDir_IsbL-0970_RLatLon0.09_PT020H.grib2 2026-04-26 08:45 909K
20260426T06Z_MSC_RDPS_WindDir_IsbL-0985_RLatLon0.09_PT020H.grib2 2026-04-26 08:45 921K
20260426T06Z_MSC_RDPS_WindDir_IsbL-1000_RLatLon0.09_PT020H.grib2 2026-04-26 08:45 940K
20260426T06Z_MSC_RDPS_WindDir_IsbL-1015_RLatLon0.09_PT020H.grib2 2026-04-26 08:45 955K
20260426T06Z_MSC_RDPS_WindGust-Max_AGL-10m_RLatLon0.09_PT020H.grib2 2026-04-26 08:45 948K
20260426T06Z_MSC_RDPS_WindGust-Min_AGL-10m_RLatLon0.09_PT020H.grib2 2026-04-26 08:45 925K
20260426T06Z_MSC_RDPS_WindGust_AGL-10m_RLatLon0.09_PT020H.grib2 2026-04-26 08:45 939K
20260426T06Z_MSC_RDPS_WindSpeed_AGL-10m_RLatLon0.09_PT020H.grib2 2026-04-26 08:45 846K
20260426T06Z_MSC_RDPS_WindSpeed_AGL-120m_RLatLon0.09_PT020H.grib2 2026-04-26 08:45 549K
20260426T06Z_MSC_RDPS_WindSpeed_AGL-40m_RLatLon0.09_PT020H.grib2 2026-04-26 08:45 554K
20260426T06Z_MSC_RDPS_WindSpeed_AGL-80m_RLatLon0.09_PT020H.grib2 2026-04-26 08:45 551K
20260426T06Z_MSC_RDPS_WindSpeed_IsbL-0001_RLatLon0.09_PT020H.grib2 2026-04-26 08:45 249K
20260426T06Z_MSC_RDPS_WindSpeed_IsbL-0005_RLatLon0.09_PT020H.grib2 2026-04-26 08:45 301K
20260426T06Z_MSC_RDPS_WindSpeed_IsbL-0010_RLatLon0.09_PT020H.grib2 2026-04-26 08:45 311K
20260426T06Z_MSC_RDPS_WindSpeed_IsbL-0020_RLatLon0.09_PT020H.grib2 2026-04-26 08:45 329K
20260426T06Z_MSC_RDPS_WindSpeed_IsbL-0030_RLatLon0.09_PT020H.grib2 2026-04-26 08:45 327K
20260426T06Z_MSC_RDPS_WindSpeed_IsbL-0050_RLatLon0.09_PT020H.grib2 2026-04-26 08:45 465K
20260426T06Z_MSC_RDPS_WindSpeed_IsbL-0100_RLatLon0.09_PT020H.grib2 2026-04-26 08:45 476K
20260426T06Z_MSC_RDPS_WindSpeed_IsbL-0150_RLatLon0.09_PT020H.grib2 2026-04-26 08:45 379K
20260426T06Z_MSC_RDPS_WindSpeed_IsbL-0175_RLatLon0.09_PT020H.grib2 2026-04-26 08:45 429K
20260426T06Z_MSC_RDPS_WindSpeed_IsbL-0200_RLatLon0.09_PT020H.grib2 2026-04-26 08:45 444K
20260426T06Z_MSC_RDPS_WindSpeed_IsbL-0225_RLatLon0.09_PT020H.grib2 2026-04-26 08:45 453K
20260426T06Z_MSC_RDPS_WindSpeed_IsbL-0250_RLatLon0.09_PT020H.grib2 2026-04-26 08:45 458K
20260426T06Z_MSC_RDPS_WindSpeed_IsbL-0275_RLatLon0.09_PT020H.grib2 2026-04-26 08:45 475K
20260426T06Z_MSC_RDPS_WindSpeed_IsbL-0300_RLatLon0.09_PT020H.grib2 2026-04-26 08:45 471K
20260426T06Z_MSC_RDPS_WindSpeed_IsbL-0350_RLatLon0.09_PT020H.grib2 2026-04-26 08:45 480K
20260426T06Z_MSC_RDPS_WindSpeed_IsbL-0400_RLatLon0.09_PT020H.grib2 2026-04-26 08:45 465K
20260426T06Z_MSC_RDPS_WindSpeed_IsbL-0450_RLatLon0.09_PT020H.grib2 2026-04-26 08:45 464K
20260426T06Z_MSC_RDPS_WindSpeed_IsbL-0500_RLatLon0.09_PT020H.grib2 2026-04-26 08:45 463K
20260426T06Z_MSC_RDPS_WindSpeed_IsbL-0550_RLatLon0.09_PT020H.grib2 2026-04-26 08:45 584K
20260426T06Z_MSC_RDPS_WindSpeed_IsbL-0600_RLatLon0.09_PT020H.grib2 2026-04-26 08:45 595K
20260426T06Z_MSC_RDPS_WindSpeed_IsbL-0650_RLatLon0.09_PT020H.grib2 2026-04-26 08:45 659K
20260426T06Z_MSC_RDPS_WindSpeed_IsbL-0700_RLatLon0.09_PT020H.grib2 2026-04-26 08:45 682K
20260426T06Z_MSC_RDPS_WindSpeed_IsbL-0750_RLatLon0.09_PT020H.grib2 2026-04-26 08:45 711K
20260426T06Z_MSC_RDPS_WindSpeed_IsbL-0800_RLatLon0.09_PT020H.grib2 2026-04-26 08:45 758K
20260426T06Z_MSC_RDPS_WindSpeed_IsbL-0850_RLatLon0.09_PT020H.grib2 2026-04-26 08:45 815K
20260426T06Z_MSC_RDPS_WindSpeed_IsbL-0875_RLatLon0.09_PT020H.grib2 2026-04-26 08:45 835K
20260426T06Z_MSC_RDPS_WindSpeed_IsbL-0900_RLatLon0.09_PT020H.grib2 2026-04-26 08:45 801K
20260426T06Z_MSC_RDPS_WindSpeed_IsbL-0925_RLatLon0.09_PT020H.grib2 2026-04-26 08:45 811K
20260426T06Z_MSC_RDPS_WindSpeed_IsbL-0950_RLatLon0.09_PT020H.grib2 2026-04-26 08:45 812K
20260426T06Z_MSC_RDPS_WindSpeed_IsbL-0970_RLatLon0.09_PT020H.grib2 2026-04-26 08:45 812K
20260426T06Z_MSC_RDPS_WindSpeed_IsbL-0985_RLatLon0.09_PT020H.grib2 2026-04-26 08:45 858K
20260426T06Z_MSC_RDPS_WindSpeed_IsbL-1000_RLatLon0.09_PT020H.grib2 2026-04-26 08:45 854K
20260426T06Z_MSC_RDPS_WindSpeed_IsbL-1015_RLatLon0.09_PT020H.grib2 2026-04-26 08:45 847K
20260426T06Z_MSC_RDPS_WindU_AGL-10m_RLatLon0.09_PT020H.grib2 2026-04-26 08:45 432K
20260426T06Z_MSC_RDPS_WindU_AGL-120m_RLatLon0.09_PT020H.grib2 2026-04-26 08:45 418K
20260426T06Z_MSC_RDPS_WindU_AGL-40m_RLatLon0.09_PT020H.grib2 2026-04-26 08:45 539K
20260426T06Z_MSC_RDPS_WindU_AGL-80m_RLatLon0.09_PT020H.grib2 2026-04-26 08:45 420K
20260426T06Z_MSC_RDPS_WindU_IsbL-0001_RLatLon0.09_PT020H.grib2 2026-04-26 08:45 292K
20260426T06Z_MSC_RDPS_WindU_IsbL-0005_RLatLon0.09_PT020H.grib2 2026-04-26 08:45 290K
20260426T06Z_MSC_RDPS_WindU_IsbL-0010_RLatLon0.09_PT020H.grib2 2026-04-26 08:45 302K
20260426T06Z_MSC_RDPS_WindU_IsbL-0020_RLatLon0.09_PT020H.grib2 2026-04-26 08:45 359K
20260426T06Z_MSC_RDPS_WindU_IsbL-0030_RLatLon0.09_PT020H.grib2 2026-04-26 08:45 357K
20260426T06Z_MSC_RDPS_WindU_IsbL-0050_RLatLon0.09_PT020H.grib2 2026-04-26 08:45 354K
20260426T06Z_MSC_RDPS_WindU_IsbL-0100_RLatLon0.09_PT020H.grib2 2026-04-26 08:45 433K
20260426T06Z_MSC_RDPS_WindU_IsbL-0150_RLatLon0.09_PT020H.grib2 2026-04-26 08:45 396K
20260426T06Z_MSC_RDPS_WindU_IsbL-0175_RLatLon0.09_PT020H.grib2 2026-04-26 08:45 326K
20260426T06Z_MSC_RDPS_WindU_IsbL-0200_RLatLon0.09_PT020H.grib2 2026-04-26 08:45 340K
20260426T06Z_MSC_RDPS_WindU_IsbL-0225_RLatLon0.09_PT020H.grib2 2026-04-26 08:45 345K
20260426T06Z_MSC_RDPS_WindU_IsbL-0250_RLatLon0.09_PT020H.grib2 2026-04-26 08:45 346K
20260426T06Z_MSC_RDPS_WindU_IsbL-0275_RLatLon0.09_PT020H.grib2 2026-04-26 08:45 361K
20260426T06Z_MSC_RDPS_WindU_IsbL-0300_RLatLon0.09_PT020H.grib2 2026-04-26 08:45 356K
20260426T06Z_MSC_RDPS_WindU_IsbL-0350_RLatLon0.09_PT020H.grib2 2026-04-26 08:45 364K
20260426T06Z_MSC_RDPS_WindU_IsbL-0400_RLatLon0.09_PT020H.grib2 2026-04-26 08:45 470K
20260426T06Z_MSC_RDPS_WindU_IsbL-0450_RLatLon0.09_PT020H.grib2 2026-04-26 08:45 469K
20260426T06Z_MSC_RDPS_WindU_IsbL-0500_RLatLon0.09_PT020H.grib2 2026-04-26 08:45 470K
20260426T06Z_MSC_RDPS_WindU_IsbL-0550_RLatLon0.09_PT020H.grib2 2026-04-26 08:45 472K
20260426T06Z_MSC_RDPS_WindU_IsbL-0600_RLatLon0.09_PT020H.grib2 2026-04-26 08:45 483K
20260426T06Z_MSC_RDPS_WindU_IsbL-0650_RLatLon0.09_PT020H.grib2 2026-04-26 08:45 501K
20260426T06Z_MSC_RDPS_WindU_IsbL-0700_RLatLon0.09_PT020H.grib2 2026-04-26 08:45 506K
20260426T06Z_MSC_RDPS_WindU_IsbL-0750_RLatLon0.09_PT020H.grib2 2026-04-26 08:45 531K
20260426T06Z_MSC_RDPS_WindU_IsbL-0800_RLatLon0.09_PT020H.grib2 2026-04-26 08:45 573K
20260426T06Z_MSC_RDPS_WindU_IsbL-0850_RLatLon0.09_PT020H.grib2 2026-04-26 08:45 623K
20260426T06Z_MSC_RDPS_WindU_IsbL-0875_RLatLon0.09_PT020H.grib2 2026-04-26 08:45 638K
20260426T06Z_MSC_RDPS_WindU_IsbL-0900_RLatLon0.09_PT020H.grib2 2026-04-26 08:45 648K
20260426T06Z_MSC_RDPS_WindU_IsbL-0925_RLatLon0.09_PT020H.grib2 2026-04-26 08:45 656K
20260426T06Z_MSC_RDPS_WindU_IsbL-0950_RLatLon0.09_PT020H.grib2 2026-04-26 08:45 652K
20260426T06Z_MSC_RDPS_WindU_IsbL-0970_RLatLon0.09_PT020H.grib2 2026-04-26 08:45 651K
20260426T06Z_MSC_RDPS_WindU_IsbL-0985_RLatLon0.09_PT020H.grib2 2026-04-26 08:45 650K
20260426T06Z_MSC_RDPS_WindU_IsbL-1000_RLatLon0.09_PT020H.grib2 2026-04-26 08:45 785K
20260426T06Z_MSC_RDPS_WindU_IsbL-1015_RLatLon0.09_PT020H.grib2 2026-04-26 08:45 780K
20260426T06Z_MSC_RDPS_WindV_AGL-10m_RLatLon0.09_PT020H.grib2 2026-04-26 08:45 379K
20260426T06Z_MSC_RDPS_WindV_AGL-120m_RLatLon0.09_PT020H.grib2 2026-04-26 08:45 416K
20260426T06Z_MSC_RDPS_WindV_AGL-40m_RLatLon0.09_PT020H.grib2 2026-04-26 08:45 419K
20260426T06Z_MSC_RDPS_WindV_AGL-80m_RLatLon0.09_PT020H.grib2 2026-04-26 08:45 418K
20260426T06Z_MSC_RDPS_WindV_IsbL-0001_RLatLon0.09_PT020H.grib2 2026-04-26 08:45 291K
20260426T06Z_MSC_RDPS_WindV_IsbL-0005_RLatLon0.09_PT020H.grib2 2026-04-26 08:45 332K
20260426T06Z_MSC_RDPS_WindV_IsbL-0010_RLatLon0.09_PT020H.grib2 2026-04-26 08:45 303K
20260426T06Z_MSC_RDPS_WindV_IsbL-0020_RLatLon0.09_PT020H.grib2 2026-04-26 08:45 322K
20260426T06Z_MSC_RDPS_WindV_IsbL-0030_RLatLon0.09_PT020H.grib2 2026-04-26 08:45 359K
20260426T06Z_MSC_RDPS_WindV_IsbL-0050_RLatLon0.09_PT020H.grib2 2026-04-26 08:45 352K
20260426T06Z_MSC_RDPS_WindV_IsbL-0100_RLatLon0.09_PT020H.grib2 2026-04-26 08:45 332K
20260426T06Z_MSC_RDPS_WindV_IsbL-0150_RLatLon0.09_PT020H.grib2 2026-04-26 08:45 392K
20260426T06Z_MSC_RDPS_WindV_IsbL-0175_RLatLon0.09_PT020H.grib2 2026-04-26 08:45 420K
20260426T06Z_MSC_RDPS_WindV_IsbL-0200_RLatLon0.09_PT020H.grib2 2026-04-26 08:45 436K
20260426T06Z_MSC_RDPS_WindV_IsbL-0225_RLatLon0.09_PT020H.grib2 2026-04-26 08:45 343K
20260426T06Z_MSC_RDPS_WindV_IsbL-0250_RLatLon0.09_PT020H.grib2 2026-04-26 08:45 345K
20260426T06Z_MSC_RDPS_WindV_IsbL-0275_RLatLon0.09_PT020H.grib2 2026-04-26 08:45 359K
20260426T06Z_MSC_RDPS_WindV_IsbL-0300_RLatLon0.09_PT020H.grib2 2026-04-26 08:45 353K
20260426T06Z_MSC_RDPS_WindV_IsbL-0350_RLatLon0.09_PT020H.grib2 2026-04-26 08:45 360K
20260426T06Z_MSC_RDPS_WindV_IsbL-0400_RLatLon0.09_PT020H.grib2 2026-04-26 08:45 362K
20260426T06Z_MSC_RDPS_WindV_IsbL-0450_RLatLon0.09_PT020H.grib2 2026-04-26 08:45 463K
20260426T06Z_MSC_RDPS_WindV_IsbL-0500_RLatLon0.09_PT020H.grib2 2026-04-26 08:45 464K
20260426T06Z_MSC_RDPS_WindV_IsbL-0550_RLatLon0.09_PT020H.grib2 2026-04-26 08:45 468K
20260426T06Z_MSC_RDPS_WindV_IsbL-0600_RLatLon0.09_PT020H.grib2 2026-04-26 08:45 477K
20260426T06Z_MSC_RDPS_WindV_IsbL-0650_RLatLon0.09_PT020H.grib2 2026-04-26 08:45 495K
20260426T06Z_MSC_RDPS_WindV_IsbL-0700_RLatLon0.09_PT020H.grib2 2026-04-26 08:45 514K
20260426T06Z_MSC_RDPS_WindV_IsbL-0750_RLatLon0.09_PT020H.grib2 2026-04-26 08:45 526K
20260426T06Z_MSC_RDPS_WindV_IsbL-0800_RLatLon0.09_PT020H.grib2 2026-04-26 08:45 566K
20260426T06Z_MSC_RDPS_WindV_IsbL-0850_RLatLon0.09_PT020H.grib2 2026-04-26 08:45 616K
20260426T06Z_MSC_RDPS_WindV_IsbL-0875_RLatLon0.09_PT020H.grib2 2026-04-26 08:45 633K
20260426T06Z_MSC_RDPS_WindV_IsbL-0900_RLatLon0.09_PT020H.grib2 2026-04-26 08:45 651K
20260426T06Z_MSC_RDPS_WindV_IsbL-0925_RLatLon0.09_PT020H.grib2 2026-04-26 08:45 657K
20260426T06Z_MSC_RDPS_WindV_IsbL-0950_RLatLon0.09_PT020H.grib2 2026-04-26 08:45 649K
20260426T06Z_MSC_RDPS_WindV_IsbL-0970_RLatLon0.09_PT020H.grib2 2026-04-26 08:45 648K
20260426T06Z_MSC_RDPS_WindV_IsbL-0985_RLatLon0.09_PT020H.grib2 2026-04-26 08:45 647K
20260426T06Z_MSC_RDPS_WindV_IsbL-1000_RLatLon0.09_PT020H.grib2 2026-04-26 08:45 644K
20260426T06Z_MSC_RDPS_WindV_IsbL-1015_RLatLon0.09_PT020H.grib2 2026-04-26 08:45 639K